Location: Untermarchtal
(48.2403°N, 9.6117°E)
Time: 06:38:18
(UTC+01:00)

ISS - Pass Details

Date: 08 January 2018
Orbit: 402 x 407 km, 51.6° (Epoch: 18 January)

Event Time Altitude Azimuth Distance (km) Brightness Sun altitude
Exits shadow 06:38:52 30° 308° (NW) 754 -3.0 -14.7°
Maximum altitude 06:40:12 56° 13° (NNE) 493 -3.5 -14.5°
Drops below altitude 10° 06:43:27 10° 93° (E) 1,468 0.3 -14.0°
Sets 06:45:34 0° 98° (E) 2,328 1.8 -13.6°
